| time (UTC) | temp C | wind direction | speed KPH | gust KPH | rain 1hr cm | rain 24hr cm | rain mn cm | humidity % | barometer mb |
| 20260508004507 | 11 | 303 | 3.2 | 11.3 | 0.00 | 0.38 | 0.28 | 44 | 1005.9 |
| 20260508003003 | 11 | 313 | 4.8 | 12.9 | 0.00 | 0.38 | 0.28 | 43 | 1005.5 |
| 20260508001559 | 11 | 322 | 4.8 | 12.9 | 0.00 | 0.38 | 0.28 | 42 | 1005.3 |
| 20260508000055 | 12 | 330 | 1.6 | 9.7 | 0.00 | 0.38 | 0.28 | 40 | 1005.1 |
| 20260507234552 | 12 | 306 | 3.2 | 12.9 | 0.00 | 0.38 | 0.28 | 39 | 1005.0 |
| 20260507233046 | 13 | 12 | 3.2 | 14.5 | 0.00 | 0.38 | 0.28 | 37 | 1004.7 |
| 20260507231542 | 13 | 355 | 1.6 | 6.4 | 0.00 | 0.38 | 0.28 | 38 | 1004.6 |
| 20260507230037 | 13 | 311 | 1.6 | 12.9 | 0.00 | 0.38 | 0.28 | 37 | 1004.3 |
| 20260507224534 | 14 | 319 | 4.8 | 16.1 | 0.00 | 0.38 | 0.28 | 37 | 1004.1 |
| 20260507223028 | 15 | 313 | 3.2 | 19.3 | 0.00 | 0.38 | 0.28 | 34 | 1003.9 |
| 20260507221525 | 15 | 340 | 4.8 | 19.3 | 0.00 | 0.38 | 0.28 | 33 | 1003.9 |
| 20260507220019 | 15 | 312 | 6.4 | 20.9 | 0.00 | 0.38 | 0.28 | 33 | 1003.6 |
| 20260507214515 | 15 | 286 | 8.0 | 17.7 | 0.00 | 0.43 | 0.28 | 34 | 1003.7 |
| 20260507213012 | 15 | 313 | 8.0 | 20.9 | 0.00 | 0.43 | 0.28 | 33 | 1003.7 |
| 20260507211506 | 15 | 320 | 8.0 | 20.9 | 0.00 | 0.43 | 0.28 | 34 | 1003.7 |
| 20260507210002 | 15 | 333 | 8.0 | 20.9 | 0.00 | 0.43 | 0.28 | 34 | 1003.5 |
| 20260507204602 | 15 | 283 | 8.0 | 17.7 | 0.00 | 0.56 | 0.28 | 34 | 1003.5 |
| 20260507203055 | 15 | 325 | 4.8 | 14.5 | 0.00 | 0.56 | 0.28 | 34 | 1003.5 |
| 20260507201600 | 15 | 323 | 9.7 | 22.5 | 0.00 | 0.56 | 0.28 | 35 | 1003.5 |
| 20260507200050 | 16 | 311 | 8.0 | 24.1 | 0.00 | 0.56 | 0.28 | 34 | 1003.5 |
| 20260507194547 | 16 | 292 | 8.0 | 20.9 | 0.00 | 0.84 | 0.28 | 34 | 1003.5 |
| 20260507193037 | 16 | 333 | 12.9 | 29.0 | 0.00 | 0.84 | 0.28 | 33 | 1003.7 |
| 20260507191534 | 16 | 336 | 6.4 | 19.3 | 0.00 | 0.84 | 0.28 | 35 | 1003.8 |
| 20260507190030 | 16 | 294 | 9.7 | 25.7 | 0.00 | 0.84 | 0.28 | 35 | 1003.8 |
| 20260507184522 | 16 | 281 | 8.0 | 29.0 | 0.00 | 1.17 | 0.28 | 38 | 1003.9 |
| 20260507183030 | 15 | 341 | 8.0 | 25.7 | 0.00 | 1.17 | 0.28 | 47 | 1003.9 |
| 20260507181513 | 15 | 269 | 8.0 | 25.7 | 0.00 | 1.17 | 0.28 | 49 | 1003.8 |
| 20260507180014 | 16 | 227 | 9.7 | 30.6 | 0.00 | 1.17 | 0.28 | 48 | 1004.0 |
| 20260507174504 | 15 | 308 | 6.4 | 24.1 | 0.00 | 1.17 | 0.28 | 53 | 1004.1 |
| 20260507173101 | 16 | 272 | 8.0 | 19.3 | 0.00 | 1.17 | 0.28 | 46 | 1003.9 |
| 20260507171556 | 15 | 284 | 1.6 | 20.9 | 0.00 | 1.17 | 0.28 | 52 | 1004.1 |
| 20260507170055 | 16 | 250 | 6.4 | 22.5 | 0.00 | 1.17 | 0.28 | 52 | 1004.3 |
| 20260507164604 | 15 | 268 | 3.2 | 16.1 | 0.00 | 1.17 | 0.28 | 52 | 1004.4 |
| 20260507163043 | 16 | 214 | 3.2 | 17.7 | 0.00 | 1.17 | 0.28 | 51 | 1004.4 |
| 20260507161540 | 15 | 301 | 4.8 | 16.1 | 0.00 | 1.17 | 0.28 | 51 | 1004.6 |
| 20260507160036 | 15 | 257 | 8.0 | 16.1 | 0.00 | 1.17 | 0.28 | 52 | 1004.8 |
| 20260507154530 | 15 | 327 | 6.4 | 17.7 | 0.00 | 1.17 | 0.28 | 53 | 1005.0 |
| 20260507153025 | 15 | 302 | 3.2 | 16.1 | 0.00 | 1.17 | 0.28 | 57 | 1005.1 |
| 20260507151522 | 14 | 316 | 3.2 | 14.5 | 0.00 | 1.17 | 0.28 | 61 | 1005.1 |
| 20260507150016 | 14 | 296 | 1.6 | 8.0 | 0.00 | 1.17 | 0.28 | 59 | 1005.1 |
| 20260507144511 | 13 | 313 | 4.8 | 12.9 | 0.00 | 1.17 | 0.28 | 59 | 1005.3 |
| 20260507143013 | 13 | 325 | 4.8 | 16.1 | 0.00 | 1.17 | 0.28 | 60 | 1005.4 |
| 20260507141502 | 13 | 282 | 6.4 | 12.9 | 0.00 | 1.17 | 0.28 | 64 | 1005.7 |
| 20260507140059 | 13 | 295 | 9.7 | 19.3 | 0.00 | 1.17 | 0.28 | 64 | 1005.8 |
| 20260507134555 | 12 | 269 | 4.8 | 20.9 | 0.00 | 1.17 | 0.28 | 66 | 1005.9 |
| 20260507133050 | 12 | 317 | 6.4 | 16.1 | 0.00 | 1.17 | 0.28 | 67 | 1006.0 |
| 20260507131557 | 12 | 295 | 1.6 | 19.3 | 0.00 | 1.17 | 0.28 | 69 | 1006.0 |
| 20260507130044 | 11 | 279 | 4.8 | 12.9 | 0.00 | 1.17 | 0.28 | 70 | 1005.9 |
| 20260507124537 | 11 | 318 | 3.2 | 14.5 | 0.00 | 1.17 | 0.28 | 69 | 1006.0 |
| 20260507123032 | 11 | 264 | 1.6 | 16.1 | 0.00 | 1.17 | 0.28 | 70 | 1006.1 |
| 20260507121528 | 10 | 277 | 4.8 | 14.5 | 0.00 | 1.17 | 0.28 | 70 | 1006.2 |
| 20260507120023 | 10 | 288 | 4.8 | 11.3 | 0.00 | 1.17 | 0.28 | 65 | 1006.3 |
| 20260507114522 | 9 | 292 | 3.2 | 11.3 | 0.00 | 1.17 | 0.28 | 62 | 1006.3 |
| 20260507113014 | 8 | 333 | 0.0 | 4.8 | 0.00 | 1.17 | 0.28 | 35 | 1006.1 |
| 20260507111510 | 7 | 333 | 0.0 | 4.8 | 0.00 | 1.17 | 0.28 | 100 | 1006.4 |
| 20260507110006 | 7 | 350 | 0.0 | 4.8 | 0.00 | 1.17 | 0.28 | 100 | 1006.4 |
| 20260507104502 | 7 | 350 | 0.0 | 0.0 | 0.00 | 1.17 | 0.28 | 100 | 1006.6 |
| 20260507103058 | 6 | 350 | 0.0 | 0.0 | 0.00 | 1.17 | 0.28 | 100 | 1006.3 |
| 20260507101553 | 6 | 350 | 0.0 | 4.8 | 0.00 | 1.17 | 0.28 | 100 | 1006.1 |
| 20260507100056 | 6 | 350 | 0.0 | 0.0 | 0.00 | 1.17 | 0.28 | 100 | 1006.4 |
| 20260507094544 | 7 | 350 | 0.0 | 3.2 | 0.00 | 1.17 | 0.28 | 100 | 1006.0 |
| 20260507093039 | 7 | 350 | 0.0 | 0.0 | 0.00 | 1.17 | 0.28 | 100 | 1005.6 |
| 20260507091539 | 7 | 350 | 0.0 | 0.0 | 0.00 | 1.17 | 0.28 | 100 | 1005.5 |
| 20260507090031 | 7 | 350 | 0.0 | 3.2 | 0.00 | 1.17 | 0.28 | 100 | 1006.1 |
| 20260507084527 | 7 | 350 | 0.0 | 3.2 | 0.00 | 1.17 | 0.28 | 100 | 1006.0 |
| 20260507083022 | 7 | 350 | 0.0 | 3.2 | 0.00 | 1.17 | 0.28 | 100 | 1006.0 |
| 20260507081517 | 7 | 350 | 0.0 | 6.4 | 0.00 | 1.17 | 0.28 | 100 | 1005.9 |
| 20260507080012 | 8 | 355 | 1.6 | 9.7 | 0.00 | 1.17 | 0.28 | 100 | 1005.6 |
| 20260507074507 | 8 | 321 | 0.0 | 3.2 | 0.00 | 1.17 | 0.28 | 100 | 1005.6 |
| 20260507073006 | 8 | 321 | 1.6 | 6.4 | 0.00 | 1.17 | 0.28 | 100 | 1005.4 |
| 20260507071605 | 8 | 324 | 1.6 | 8.0 | 0.00 | 1.17 | 0.28 | 100 | 1005.5 |
| 20260507070104 | 8 | 324 | 0.0 | 3.2 | 0.00 | 1.17 | 0.28 | 100 | 1005.2 |
| 20260507064625 | 8 | 324 | 0.0 | 4.8 | 0.00 | 1.17 | 0.28 | 100 | 1005.0 |
| 20260507063051 | 8 | 324 | 0.0 | 9.7 | 0.00 | 1.17 | 0.28 | 100 | 1005.0 |
| 20260507061542 | 9 | 323 | 0.0 | 3.2 | 0.00 | 1.17 | 0.28 | 100 | 1004.7 |
| 20260507060049 | 9 | 323 | 0.0 | 6.4 | 0.00 | 1.17 | 0.28 | 100 | 1004.7 |
| 20260507054534 | 9 | 324 | 0.0 | 9.7 | 0.00 | 1.17 | 0.28 | 100 | 1004.6 |
| 20260507053030 | 9 | 327 | 3.2 | 14.5 | 0.00 | 1.17 | 0.28 | 100 | 1004.3 |
| 20260507051525 | 10 | 343 | 1.6 | 12.9 | 0.05 | 1.17 | 0.28 | 100 | 1004.4 |
| 20260507050034 | 10 | 331 | 3.2 | 14.5 | 0.25 | 1.17 | 0.28 | 100 | 1004.2 |
| 20260507044516 | 10 | 327 | 3.2 | 14.5 | 0.30 | 1.17 | 0.28 | 100 | 1004.4 |
| 20260507043011 | 11 | 300 | 6.4 | 17.7 | 0.33 | 1.17 | 0.28 | 100 | 1004.3 |
| 20260507041520 | 11 | 351 | 4.8 | 12.9 | 0.28 | 1.12 | 0.23 | 100 | 1004.3 |
| 20260507040002 | 11 | 340 | 4.8 | 17.7 | 0.05 | 0.89 | 0.00 | 100 | 1004.7 |
| 20260507034559 | 12 | 355 | 6.4 | 16.1 | 0.03 | 0.86 | 0.86 | 100 | 1003.8 |
| 20260507033054 | 12 | 320 | 4.8 | 11.3 | 0.00 | 0.84 | 0.84 | 100 | 1003.6 |
| 20260507031549 | 12 | 180 | 0.0 | 0.0 | 0.00 | 0.84 | 0.84 | 100 | 1003.4 |
| 20260507030046 | 12 | 180 | 0.0 | 3.2 | 0.00 | 0.84 | 0.84 | 100 | 1003.3 |
| 20260507024542 | 12 | 180 | 0.0 | 4.8 | 0.03 | 0.84 | 0.84 | 100 | 1003.3 |
| 20260507023041 | 12 | 180 | 0.0 | 3.2 | 0.03 | 0.84 | 0.84 | 100 | 1003.5 |
| 20260507021536 | 12 | 180 | 0.0 | 4.8 | 0.03 | 0.84 | 0.84 | 100 | 1003.5 |
| 20260507020032 | 12 | 180 | 0.0 | 8.0 | 0.05 | 0.84 | 0.84 | 100 | 1003.6 |
| 20260507014524 | 12 | 180 | 3.2 | 8.0 | 0.03 | 0.81 | 0.81 | 100 | 1003.6 |
| 20260507013019 | 12 | 198 | 0.0 | 4.8 | 0.03 | 0.81 | 0.81 | 100 | 1003.9 |
| 20260507011515 | 12 | 194 | 0.0 | 8.0 | 0.03 | 0.81 | 0.81 | 100 | 1003.8 |
| 20260507010010 | 12 | 207 | 3.2 | 11.3 | 0.00 | 0.79 | 0.79 | 100 | 1003.9 |